Flag Weather past 2 weeks in Boa Vista, Roraima, Brazil

Now
82 °F

Passing clouds.


Feels Like: 86 °F
Forecast: 73 / 90 °F
Wind: 7 mph from East

Location: Boa Vista Aeropor-To

Current Time: Nov 25, 2014 at 9:01:46 PM

Latest Report: Nov 25, 2014 at 8:00 PM


Visibility: N/A

Pressure: 29.77 "Hg

Humidity: 66%

Dew point: 70 °F

Location of Boa VistaLocation

Historic Weather in Boa Vista — Graph

°F

Boa Vista temperature yesterday

Maximum temperature yesterday: 86 °F (at 1:00 PM)
Minimum temperature yesterday: 72 °F (at 5:00 AM)
Average temperature yesterday: 79 °F

Past Weeks' High & Low Weather Summary

 TemperatureHumidityPressure
High91 °F (Nov 12, 2:00 PM)100% (Nov 14, 9:00 AM)29.98 "Hg (Nov 14, 9:00 AM)
Low36 °F (Nov 16, 10:00 PM)41% (Nov 15, 3:00 PM)29.62 "Hg (Nov 13, 4:00 PM)
Average79 °F76%29.82 "Hg
* Reported Nov 10 7:00 PM — Nov 25 7:00 PM, Boa Vista, Weather by CustomWeather, © 2014

Note: Actual official high and low records may vary slightly from our data, if they occured in-between our weather recording intervals... More about our weather records

Advertising

Boa Vista weather history for previous 24 hours

 ConditionsComfort  
Time TempWeatherWind HumidityBarometerVisibility
7:00 PM
Nov 25
84 °FPassing clouds.3 mph62%29.74 "HgN/A
6:00 PM86 °FScattered showers. Passing clouds.7 mph55%29.74 "HgN/A
5:00 PM86 °FScattered clouds.6 mph59%29.74 "HgN/A
4:00 PM90 °FScattered showers. Scattered clouds.8 mph46%29.74 "HgN/A
3:00 PM90 °FScattered clouds.9 mph46%29.74 "HgN/A
2:00 PM88 °FScattered clouds.12 mph52%29.77 "HgN/A
1:00 PM88 °FScattered clouds.10 mph52%29.80 "HgN/A
12:00 PM86 °FScattered clouds.12 mph55%29.83 "HgN/A
11:00 AM84 °FScattered clouds.10 mph58%29.86 "HgN/A
10:00 AM84 °FPassing clouds.13 mph58%29.89 "HgN/A
9:00 AM81 °FSunny.15 mph70%29.89 "Hg10 mi
8:00 AM79 °FSunny.9 mph74%29.89 "Hg10 mi
7:00 AM73 °FSunny.6 mph89%29.89 "Hg10 mi
6:00 AM73 °FSunny.6 mph89%29.86 "Hg10 mi
5:00 AM73 °FClear.6 mph89%29.83 "Hg10 mi
4:00 AM73 °FClear.6 mph89%29.83 "Hg10 mi
3:00 AM73 °FClear.3 mph89%29.83 "Hg10 mi
2:00 AM75 °FClear.6 mph83%29.83 "Hg10 mi
1:00 AM77 °FClear.3 mph79%29.83 "Hg10 mi
12:00 AM77 °FClear.5 mph79%29.86 "Hg10 mi
11:00 PM
Nov 24
77 °FClear.7 mph79%29.86 "Hg10 mi
10:00 PM79 °FClear.8 mph74%29.83 "Hg10 mi
9:00 PM79 °FClear.7 mph74%29.83 "Hg10 mi
Weather by CustomWeather, © 2014

See weather overviewHow to use our weather pages